千帆星座-98(QIANFAN-98)

导读 | 豆包AI

QIANFAN-98(千帆-98)是中国研制发射的低轨卫星,于2025年10月17日成功进入预定轨道,属于中国“千帆星座”卫星互联网巨型星座组网卫星序列。千帆星座计划由超15000颗卫星组成,旨在实现全球互联网覆盖,对标星链星座,QIANFAN-98的成功入轨进一步完善了千帆星座的网络布局,将为全球万物互联提供低延迟、高可靠的宽带通信支持,推动卫星物联网在智慧农业等领域商业化应用,助力国产低轨卫星互联网建设加速落地。

Basic Information
目录编号:
66040
目录名称:
QIANFAN-98
国际标识:
2025-233H
轨道中心:
EARTH
卫星名称:
千帆星座-98
卫星全名:
千帆星座-98(QIANFAN-98)
卫星状态:
在轨 (已飞行148 天)
发射日期:
2025-10-17 UTC
国别 :
中国 (CN)
星等 :
--
Orbit Information
数据来源 国际轨道数据 AOE轨道数据
星历时间 2026-03-14T06:00:52+0800
9小时前
查看轨道信息
2026-03-14T11:00:00+0800
4小时前
查看轨道信息
半长轴 7446.7km 7446.703km
偏心率 0.0002457 0.0002405
轨道倾角 88.994° 88.994°
近地点辐角 80.135° 83.486°
升交点赤经 52.551° 52.530°
平近点角 280.008° 206.392°
近地点 1066.733km 1066.775km
远地点 1070.393km 1070.357km
周期 106.587分钟 106.587分钟
每日圈数 13.510053 13.510044
Detailed Information
卫星平台:
98
覆盖范围:
全球
运营商:
上海垣信卫星科技有限公司
运营商所在国:
中国
使用方式:
暂无
Satellite Introduction
千帆星座,也被称为“G60星链”计划,是中国版“星链”的重要组成部分,旨在打造一个由1.4万多颗低轨宽频多媒体卫星构成的庞大星座。千帆星座计划由上海垣信卫星科技有限公司负责实施,于2023年启动建设。该项目是我国第二个低轨卫星大星座,旨在通过构建庞大的卫星网络,为全球用户提供高质量的通信和宽带互联网服务。
2D Orbit Map
3D Orbit Map
Orbit Altitude Analysis Chart
Orbit Inclination Analysis Chart
Orbit Comprehensive Analysis Chart
View Comprehensive Chart